Weather History for KFWA - June, 2012

Change the Weather History Date:

Friday, June 22, 2012

  Actual Average Record
Temperature  
Mean Temperature 73 °F 72 °F  
Max Temperature 86 °F 83 °F 99 °F (1988)
Min Temperature 60 °F 61 °F 40 °F (1902)
Degree Days  
Heating Degree Days 0 0  
Month to date heating degree days 26 29  
Since 1 June heating degree days 26 29  
Since 1 July heating degree days 4880 6101  
Cooling Degree Days 8 8  
Month to date cooling degree days 160 117  
Year to date cooling degree days 313 174  
Since 1 June cooling degree days 160 117  
Growing Degree Days 23 (Base 50)    
Moisture  
Dew Point 58 °F    
Average Humidity 64    
Maximum Humidity 100    
Minimum Humidity 27    
Precipitation  
Precipitation 0.00 in 0.13 in 4.43 in (1900)
Month to date precipitation 0.25 3.16  
Year to date precipitation 10.60 17.96  
Snow  
Snow 0.00 in 0.00 in 0.00 in ()
Month to date snowfall 0.0 0.0  
Since 1 June snowfall 0.0  
Since 1 July snowfall 32.2 33.5  
Snow Depth 0.00 in    
Sea Level Pressure  
Sea Level Pressure 29.97 in    
Wind  
Wind Speed 4 mph (NW)    
Max Wind Speed 16 mph    
Max Gust Speed 20 mph    
Visibility 7 miles    
Events Fog    
T = Trace of Precipitation, MM = Missing Value Source: NWS Daily Summary

Daily Weather History Graph

Daily Weather History Graph

Search for Another Location

Airport or City:

Trip Planner

Search our weather history database for the weather conditions in past years. The results will help you decide how hot, cold, wet, or windy it might be!

Date:

Astronomy

Jun. 22, 2012 Rise Set
Actual Time 6:09 AM EDT 9:16 PM EDT
Civil Twilight 5:35 AM EDT 9:50 PM EDT
Nautical Twilight 4:52 AM EDT 10:33 PM EDT
Astronomical Twilight 4:01 AM EDT 11:24 PM EDT
Moon 9:09 AM EDT (6/22) 11:11 PM EDT (6/22)
Length of Visible Light 16h 14m
Length of Day
15h 07m
Waxing Crescent, 9% of the Moon is Illuminated
Jun 22
Waxing Crescent
Jun 26
First Quarter
Jul 3
Full
Jul 10
Last Quarter
Jul 19
New

Hourly Weather History & Observations

Time (EDT) Temp. Heat Index Dew Point Humidity Pressure Visibility Wind Dir Wind Speed Gust Speed Precip Events Conditions
12:54 AM 63.0 °F - 61.0 °F 93% 29.96 in 10.0 mi West 3.5 mph - N/A   Scattered Clouds
1:54 AM 62.1 °F - 60.1 °F 93% 29.96 in 10.0 mi Calm Calm - N/A   Scattered Clouds
2:54 AM 60.8 °F - 59.0 °F 94% 29.97 in 10.0 mi Calm Calm - N/A   Partly Cloudy
3:54 AM 61.0 °F - 60.1 °F 97% 29.95 in 10.0 mi Calm Calm - N/A   Partly Cloudy
4:54 AM 62.1 °F - 61.0 °F 96% 29.96 in 10.0 mi Calm Calm - N/A   Mostly Cloudy
5:54 AM 62.1 °F - 60.1 °F 93% 29.96 in 7.0 mi Calm Calm - N/A Fog Patches of Fog
6:30 AM 60.8 °F - 60.8 °F 100% 29.98 in 5.0 mi Calm Calm - N/A   Scattered Clouds
6:42 AM 60.8 °F - 60.8 °F 100% 29.98 in 4.0 mi Calm Calm - N/A   Mostly Cloudy
6:54 AM 62.1 °F - 61.0 °F 96% 29.97 in 3.0 mi Calm Calm - N/A   Mostly Cloudy
7:23 AM 62.6 °F - 62.6 °F 100% 29.99 in 2.5 mi Calm Calm - N/A   Mostly Cloudy
7:28 AM 64.4 °F - 62.6 °F 94% 30.00 in 2.5 mi Calm Calm - N/A   Mostly Cloudy
7:38 AM 64.4 °F - 62.6 °F 94% 30.00 in 0.2 mi Calm Calm - N/A Fog Fog
7:47 AM 64.4 °F - 62.6 °F 94% 30.00 in 0.2 mi Calm Calm - N/A Fog Fog
7:54 AM 64.0 °F - 63.0 °F 96% 29.99 in 0.2 mi Calm Calm - N/A Fog Fog
8:05 AM 64.4 °F - 64.4 °F 100% 30.00 in 0.2 mi Calm Calm - N/A Fog Fog
8:18 AM 64.4 °F - 64.4 °F 100% 30.00 in 1.0 mi Calm Calm - N/A   Mostly Cloudy
8:26 AM 66.2 °F - 64.4 °F 94% 30.00 in 2.0 mi Calm Calm - N/A   Mostly Cloudy
8:54 AM 68.0 °F - 64.9 °F 90% 29.99 in 2.5 mi NNE 3.5 mph - N/A   Mostly Cloudy
9:04 AM 68.0 °F - 64.4 °F 88% 30.01 in 3.0 mi Calm Calm - N/A   Mostly Cloudy
9:26 AM 71.6 °F - 66.2 °F 83% 30.01 in 5.0 mi North 3.5 mph - N/A   Haze
9:54 AM 72.0 °F - 66.0 °F 81% 30.00 in 8.0 mi Calm Calm - N/A   Partly Cloudy
10:54 AM 75.2 °F - 66.2 °F 73% 30.00 in 10.0 mi East 4.6 mph - N/A   Partly Cloudy
11:54 AM 77.0 °F - 64.0 °F 64% 29.99 in 10.0 mi SSW 4.6 mph - N/A   Scattered Clouds
12:54 PM 82.0 °F 82.7 °F 61.0 °F 49% 29.98 in 10.0 mi Variable 3.5 mph - N/A   Scattered Clouds
1:54 PM 84.0 °F - 52.0 °F 33% 29.97 in 10.0 mi West 9.2 mph - N/A   Scattered Clouds
2:54 PM 82.9 °F - 50.0 °F 32% 29.96 in 10.0 mi NW 8.1 mph - N/A   Mostly Cloudy
3:54 PM 82.9 °F - 48.0 °F 29% 29.95 in 10.0 mi NW 3.5 mph - N/A   Scattered Clouds
4:54 PM 84.0 °F - 48.9 °F 29% 29.94 in 10.0 mi NNW 12.7 mph 17.3 mph N/A   Scattered Clouds
5:54 PM 84.9 °F - 48.0 °F 28% 29.93 in 10.0 mi West 9.2 mph - N/A   Scattered Clouds
6:54 PM 84.0 °F - 46.9 °F 27% 29.93 in 10.0 mi NNW 8.1 mph - N/A   Partly Cloudy
7:54 PM 82.0 °F - 51.1 °F 34% 29.94 in 10.0 mi NNW 13.8 mph - N/A   Partly Cloudy
8:54 PM 78.1 °F - 53.1 °F 42% 29.95 in 10.0 mi NNW 8.1 mph - N/A   Clear
9:54 PM 73.0 °F - 53.1 °F 49% 29.96 in 10.0 mi NW 4.6 mph - N/A   Clear
10:54 PM 70.0 °F - 53.1 °F 55% 29.99 in 10.0 mi NNW 5.8 mph - N/A   Clear
11:54 PM 68.0 °F - 52.0 °F 56% 29.99 in 10.0 mi NNW 4.6 mph - N/A   Clear